Terminal Aerodrome Forecast
Issued by NWS Denver/Boulder, CO

Home | Current Version | Previous Version | Text Only | Print | Product List | Glossary On
Versions: 1 2 3 4 5 6 7 8 9 10 11 12 13 14 15 16 17 18 19 20 21 22 23 24 25 26 27 28 29 30 31 32 33 34 35 36 37 38 39 40 41 42 43 44 45 46 47 48 49 50
000
FTUS45 KBOU 202329
TAFDEN
TAF
KDEN 202329Z 2100/2206 10010KT P6SM SCT120 BKN200
     FM210100 18008KT P6SM SCT060 BKN100
     FM210600 20009KT P6SM SCT100 BKN150
     FM211900 26012KT P6SM SCT100 BKN150
     FM220200 22008KT P6SM BKN100 BKN150=

USA.gov is the U.S. government's official web portal to all federal, state and local government web resources and services.